When you browse on this site, cookies collect data to enhance your experience and personalize the content and advertising you see.
Visit our Privacy Policy to learn more. By continuing to use the site, you agree to this use of cookies and data.
  • In Austria
  • List of Countries
  • For 7 days
  • Water Temperature
  • Satellite Maps
  • Weather Map
  • News
  • Weather Widgets
  • user-avatar
    Login

    Hourly Weather Aveiro

    Today, 25 May, Saturday

    Time Temperature Precipitation Wind Pressure Humidity
    00:00 +15°C° 0 mm 4 mps 763 mmHg 66%
    01:00 +15°C° 0 mm 4 mps 763 mmHg 65%
    02:00 +16°C° 0 mm 3 mps 763 mmHg 65%
    03:00 +16°C° 0 mm 3 mps 763 mmHg 66%
    04:00 +14°C° 0 mm 3 mps 764 mmHg 67%
    05:00 +14°C° 0 mm 3 mps 764 mmHg 68%
    06:00 +17°C° 0 mm 3 mps 764 mmHg 60%
    07:00 +20°C° 0 mm 2 mps 764 mmHg 53%
    08:00 +23°C° 0 mm 2 mps 764 mmHg 45%
    09:00 +24°C° 0 mm 3 mps 764 mmHg 42%
    10:00 +26°C° 0 mm 3 mps 764 mmHg 39%
    11:00 +27°C° 0 mm 4 mps 764 mmHg 35%
    12:00 +27°C° 0 mm 5 mps 763 mmHg 36%
    13:00 +27°C° 0 mm 5 mps 763 mmHg 37%
    14:00 +27°C° 0 mm 6 mps 763 mmHg 38%
    15:00 +26°C° 0 mm 6 mps 762 mmHg 43%
    16:00 +24°C° 0 mm 6 mps 762 mmHg 48%
    17:00 +23°C° 0 mm 6 mps 762 mmHg 53%
    18:00 +22°C° 0 mm 6 mps 762 mmHg 59%
    19:00 +20°C° 0 mm 5 mps 763 mmHg 65%
    20:00 +19°C° 0 mm 4 mps 763 mmHg 71%
    21:00 +18°C° 0 mm 4 mps 763 mmHg 72%
    22:00 +18°C° 0 mm 4 mps 763 mmHg 72%
    23:00 +18°C° 0 mm 4 mps 764 mmHg 73%

    Tomorrow, 26 May, Sunday

    Time Temperature Precipitation Wind Pressure Humidity
    00:00 +18°C° 0 mm 4 mps 763 mmHg 73%
    01:00 +17°C° 0 mm 3 mps 763 mmHg 73%
    02:00 +17°C° 0 mm 3 mps 763 mmHg 73%
    03:00 +17°C° 0 mm 3 mps 763 mmHg 71%
    04:00 +17°C° 0 mm 3 mps 763 mmHg 69%
    05:00 +17°C° 0 mm 3 mps 763 mmHg 66%
    06:00 +19°C° 0 mm 3 mps 764 mmHg 59%
    07:00 +21°C° 0 mm 2 mps 764 mmHg 51%
    08:00 +25°C° 0 mm 2 mps 764 mmHg 44%
    09:00 +26°C° 0 mm 3 mps 764 mmHg 41%
    10:00 +28°C° 0 mm 3 mps 763 mmHg 38%
    11:00 +29°C° 0 mm 4 mps 763 mmHg 36%
    12:00 +29°C° 0 mm 5 mps 763 mmHg 37%
    13:00 +29°C° 0 mm 5 mps 762 mmHg 39%
    14:00 +28°C° 0 mm 6 mps 762 mmHg 41%
    15:00 +27°C° 0 mm 6 mps 762 mmHg 46%
    16:00 +26°C° 0 mm 6 mps 762 mmHg 50%
    17:00 +24°C° 0 mm 6 mps 761 mmHg 55%
    18:00 +22°C° 0 mm 6 mps 762 mmHg 61%
    19:00 +21°C° 0 mm 5 mps 762 mmHg 66%
    20:00 +19°C° 0 mm 5 mps 762 mmHg 72%
    21:00 +19°C° 0 mm 5 mps 762 mmHg 74%
    22:00 +18°C° 0 mm 4 mps 762 mmHg 77%
    23:00 +18°C° 0 mm 4 mps 762 mmHg 79%

    Day after tomorrow, 27 May, Monday

    Time Temperature Precipitation Wind Pressure Humidity
    00:00 +17°C° 0 mm 4 mps 762 mmHg 80%
    01:00 +17°C° 0 mm 4 mps 761 mmHg 81%
    02:00 +17°C° 0 mm 4 mps 761 mmHg 82%
    03:00 +17°C° 0 mm 4 mps 761 mmHg 81%
    04:00 +17°C° 0 mm 3 mps 761 mmHg 80%
    05:00 +17°C° 0 mm 3 mps 761 mmHg 79%
    06:00 +19°C° 0 mm 3 mps 761 mmHg 70%
    07:00 +22°C° 0 mm 4 mps 761 mmHg 62%
    08:00 +25°C° 0 mm 4 mps 761 mmHg 54%
    09:00 +26°C° 0 mm 5 mps 761 mmHg 51%
    10:00 +26°C° 0 mm 6 mps 761 mmHg 49%
    11:00 +27°C° 0 mm 6 mps 760 mmHg 46%
    12:00 +27°C° 0 mm 7 mps 760 mmHg 48%
    13:00 +27°C° 0 mm 7 mps 759 mmHg 49%
    14:00 +27°C° 0 mm 7 mps 759 mmHg 50%
    15:00 +26°C° 0 mm 7 mps 759 mmHg 54%
    16:00 +24°C° 0 mm 7 mps 759 mmHg 58%
    17:00 +23°C° 0 mm 7 mps 758 mmHg 61%
    18:00 +21°C° 0 mm 6 mps 759 mmHg 67%
    19:00 +20°C° 0 mm 5 mps 759 mmHg 72%
    20:00 +19°C° 0 mm 5 mps 760 mmHg 77%
    21:00 +17°C° 0 mm 5 mps 760 mmHg 77%
    22:00 +17°C° 0 mm 5 mps 760 mmHg 76%
    23:00 +17°C° 0 mm 5 mps 760 mmHg 76%

    28 May, Tuesday

    Time Temperature Precipitation Wind Pressure Humidity
    00:00 +18°C° 0 mm 4 mps 760 mmHg 76%
    01:00 +18°C° 0 mm 4 mps 760 mmHg 76%
    02:00 +18°C° 0 mm 4 mps 759 mmHg 76%
    03:00 +18°C° 0 mm 4 mps 760 mmHg 75%
    04:00 +17°C° 0 mm 4 mps 760 mmHg 74%
    05:00 +17°C° 0 mm 4 mps 760 mmHg 73%
    06:00 +19°C° 0 mm 4 mps 760 mmHg 65%
    07:00 +22°C° 0 mm 4 mps 761 mmHg 57%
    08:00 +25°C° 0 mm 4 mps 761 mmHg 49%
    09:00 +26°C° 0 mm 4 mps 761 mmHg 45%
    10:00 +27°C° 0 mm 5 mps 761 mmHg 41%
    11:00 +29°C° 0 mm 5 mps 761 mmHg 38%
    12:00 +29°C° 0 mm 6 mps 760 mmHg 36%
    13:00 +29°C° 0 mm 6 mps 760 mmHg 35%
    14:00 +29°C° 0 mm 7 mps 760 mmHg 34%
    15:00 +29°C° 0 mm 7 mps 760 mmHg 36%
    16:00 +28°C° 0 mm 7 mps 760 mmHg 37%
    17:00 +27°C° 0 mm 7 mps 760 mmHg 39%
    18:00 +24°C° 0 mm 7 mps 760 mmHg 42%
    19:00 +23°C° 0 mm 7 mps 761 mmHg 44%
    20:00 +21°C° 0 mm 6 mps 762 mmHg 47%
    21:00 +21°C° 0 mm 6 mps 762 mmHg 48%
    22:00 +20°C° 0 mm 5 mps 762 mmHg 49%
    23:00 +19°C° 0 mm 5 mps 762 mmHg 51%

    29 May, Wednesday

    Time Temperature Precipitation Wind Pressure Humidity
    00:00 +19°C° 0 mm 4 mps 762 mmHg 53%
    01:00 +18°C° 0 mm 4 mps 763 mmHg 55%
    02:00 +18°C° 0 mm 4 mps 763 mmHg 58%
    03:00 +17°C° 0 mm 4 mps 763 mmHg 58%
    04:00 +17°C° 0 mm 4 mps 763 mmHg 58%
    05:00 +16°C° 0 mm 3 mps 764 mmHg 59%
    06:00 +18°C° 0 mm 4 mps 764 mmHg 52%
    07:00 +20°C° 0 mm 4 mps 764 mmHg 46%
    08:00 +21°C° 0 mm 4 mps 764 mmHg 39%
    09:00 +23°C° 0 mm 4 mps 764 mmHg 35%
    10:00 +26°C° 0 mm 4 mps 764 mmHg 32%
    11:00 +28°C° 0 mm 4 mps 764 mmHg 28%
    12:00 +28°C° 0 mm 4 mps 763 mmHg 27%
    13:00 +29°C° 0 mm 4 mps 763 mmHg 26%
    14:00 +30°C° 0 mm 5 mps 763 mmHg 25%
    15:00 +29°C° 0 mm 5 mps 762 mmHg 28%
    16:00 +28°C° 0 mm 5 mps 762 mmHg 31%
    17:00 +28°C° 0 mm 5 mps 762 mmHg 34%
    18:00 +26°C° 0 mm 4 mps 763 mmHg 38%
    19:00 +22°C° 0 mm 4 mps 763 mmHg 42%
    20:00 +20°C° 0 mm 3 mps 764 mmHg 46%
    21:00 +20°C° 0 mm 3 mps 764 mmHg 45%
    22:00 +19°C° 0 mm 3 mps 764 mmHg 45%
    23:00 +19°C° 0 mm 3 mps 765 mmHg 44%

    30 May, Thursday

    Time Temperature Precipitation Wind Pressure Humidity
    00:00 +19°C° 0 mm 4 mps 765 mmHg 44%
    01:00 +19°C° 0 mm 4 mps 765 mmHg 44%
    02:00 +19°C° 0 mm 5 mps 765 mmHg 44%
    03:00 +17°C° 0 mm 5 mps 765 mmHg 44%
    04:00 +17°C° 0 mm 5 mps 765 mmHg 43%
    05:00 +16°C° 0 mm 5 mps 765 mmHg 43%
    06:00 +19°C° 0 mm 4 mps 765 mmHg 39%
    07:00 +21°C° 0 mm 4 mps 766 mmHg 34%
    08:00 +24°C° 0 mm 3 mps 766 mmHg 30%
    09:00 +26°C° 0 mm 3 mps 765 mmHg 27%
    10:00 +28°C° 0 mm 3 mps 765 mmHg 24%
    11:00 +30°C° 0 mm 3 mps 765 mmHg 22%
    12:00 +31°C° 0 mm 3 mps 765 mmHg 21%
    13:00 +32°C° 0 mm 4 mps 764 mmHg 21%
    14:00 +33°C° 0 mm 4 mps 764 mmHg 20%
    15:00 +32°C° 0 mm 5 mps 763 mmHg 24%
    16:00 +30°C° 0 mm 5 mps 763 mmHg 29%
    17:00 +29°C° 0 mm 5 mps 763 mmHg 33%
    18:00 +27°C° 0 mm 5 mps 763 mmHg 37%
    19:00 +23°C° 0 mm 4 mps 763 mmHg 42%
    20:00 +21°C° 0 mm 4 mps 764 mmHg 46%
    21:00 +21°C° 0 mm 4 mps 764 mmHg 45%
    22:00 +20°C° 0 mm 3 mps 764 mmHg 44%
    23:00 +20°C° 0 mm 3 mps 764 mmHg 43%
    Show more